This is the latest recevied weather packets stored in our database for station/object M0JUI-1. If no packets are shown the sender has not sent any weather packets the latest 10 day(s).
| Time | Temp. | Humidity | Pressure | Rain* | Wind** | Luminosity | Snow |
|---|---|---|---|---|---|---|---|
| 1788632685 | 16.67° C | 11% | 1024.9 hPa | 0 mm | - | 8 W/m² | - |
| 1788632386 | 16.67° C | 8% | 1024.8 hPa | 0 mm | - | 9 W/m² | - |
| 1788632074 | 16.67° C | 7% | 1024.7 hPa | 0 mm | - | 12 W/m² | - |
| 1788631761 | 16.67° C | 5% | 1024.7 hPa | 0 mm | - | 15 W/m² | - |
| 1788631462 | 16.67° C | 3% | 1024.6 hPa | 0 mm | - | 19 W/m² | - |
| 1788631161 | 16.67° C | 1% | 1024.7 hPa | 0 mm | - | 21 W/m² | - |
| 1788630849 | 16.67° C | 1% | 1024.6 hPa | 0 mm | - | 23 W/m² | - |
| 1788630549 | 17.22° C | 1% | 1024.6 hPa | 0 mm | - | 27 W/m² | - |
| 1788630250 | 17.22° C | 1% | 1024.7 hPa | 0 mm | - | 27 W/m² | - |
| 1788629949 | 17.22° C | 99% | 1024.6 hPa | 0 mm | - | 31 W/m² | - |
| 1788629649 | 17.22° C | 1% | 1024.4 hPa | 0 mm | - | 36 W/m² | - |
| 1788629349 | 17.78° C | 99% | 1024.3 hPa | 0 mm | - | 46 W/m² | - |
| 1788629049 | 17.78° C | 99% | 1024.4 hPa | 0 mm | - | 40 W/m² | - |
| 1788628749 | 17.78° C | 99% | 1024.4 hPa | 0 mm | - | 28 W/m² | - |
| 1788628449 | 17.78° C | 99% | 1024.4 hPa | 0 mm | - | 51 W/m² | - |
| 1788628149 | 17.78° C | 99% | 1024.4 hPa | 0 mm | - | 62 W/m² | - |
| 1788627849 | 18.33° C | 99% | 1024.4 hPa | 0 mm | - | 58 W/m² | - |
| 1788627550 | 18.33° C | 99% | 1024.4 hPa | 0 mm | - | 69 W/m² | - |
| 1788627249 | 18.33° C | 99% | 1024.2 hPa | 0 mm | - | 76 W/m² | - |
| 1788626938 | 18.89° C | 99% | 1024.3 hPa | 0 mm | - | 95 W/m² | - |
| 1788626637 | 18.89° C | 99% | 1024.4 hPa | 0 mm | - | 101 W/m² | - |
| 1788626337 | 18.89° C | 99% | 1024.3 hPa | 0 mm | - | 93 W/m² | - |
| 1788626037 | 18.33° C | 99% | 1024.2 hPa | 0 mm | - | 100 W/m² | - |
| 1788625737 | 18.33° C | 99% | 1024.2 hPa | 0 mm | - | 85 W/m² | - |
| 1788625437 | 18.89° C | 99% | 1024.2 hPa | 0 mm | - | 74 W/m² | - |
* Rain latest hour (hover to see other rain measurements)
** Current wind speed in m/s (hover to see current wind gust speed)